SCP
0 0 0 0 0 0 0 0 0 0 0 0 0 0 0 0 0 0 0 0 0 0 0 0 0 0 0 0 0 0 0 0 0 0 0 0 0 0 0 0 0 0 0
0 0 0 0 0 0 0 0 0 0 0 0 0 0 0 0 0 0 0 0 0 0 0 0 0 0 0 0 0 0 0 0 0 0 0 0 0 0 0 0 0 0 0
0 0 0 0 0 0 0 0 0 0 0 0 0 0 0 0 0 0 0 0 0 0 0 0 0 0 0 0 0 0 0 0 0 0 0 0 0 0 0 0 0 0 0
0 0 0 0 0 0 0 0 0 0 0 0 0 0 0 0 0 0 0 0 0 0 0 0 0 0 0 0 0 0 0 0 0 0 0 0 0 0 0 0 0 0 0
0 0 0 0 0 0 0 0 0 0 0 0 0 0 0 0 0 0 0 0 0 0 0 0 0 0 0 0 0 0 0 0 0 0 0 0 0 0 0 0 0 0 0
0 0 0 0 0 0 0 0 0 0 0 0 0 0 0 0 0 0 0 0 0 0 0 0 0 0 0 0 0 0 0 0 0 0 0 0 0 0 0 0 0 0 0
0 0 0 0 0 0 0 0 0 0 0 0 0 0 0 0 0 0 0 0 0 0 0 0 0 0 0 0 0 0 0 0 0 0 0 0 0 0 0 0 0 0 0
0 0 0 0 0 0 0 0 0 0 0 0 0 0 0 0 0 0 0 0 0 0 0 0 0 0 0 0 0 0 0 0 0 0 0 0 0 0 0 0 0 0 0
0 0 0 0 0 0 0 0 0 0 0 0 0 0 0 0 0 0 0 0 0 0 0 0 0 0 0 0 0 0 0 0 0 0 0 0 0 0 0 0 0 0 0
0 0 0 0 0 0 0 0 0 0 0 0 0 0 0 0 0 0 0 0 0 0 0 0 0 0 0 0 0 0 0 0 0 0 0 0 0 0 0 0 0 0 0
0 0 0 0 0 0 0 0 0 0 0 0 0 0 0 0 0 0 0 0 0 0 0 0 0 0 0 0 0 0 0 0 0 0 0 0 0 0 0 0 0 0 0
0 0 0 0 0 0 0 0 0 0 0 0 0 0 0 0 0 0 0 0 0 0 0 0 0 0 0 0 0 0 0 0 0 0 0 0 0 0 0 0 0 0 0
0 0 0 0 0 0 0 0 0 0 0 0 0 0 0 0 0 0 0 0 0 0 0 0 0 0 0 0 0 0 0 0 0 0 0 0 0 0 0 0 0 0 0
0 0 0 0 0 0 0 0 0 0 0 0 0 0 0 0 0 0 0 0 0 0 0 0 0 0 0 0 0 0 0 0 0 0 0 0 0 0 0 0 0 0 0
0 0 0 0 0 0 0 0 0 0 0 0 0 0 0 0 0 0 0 0 0 0 0 0 0 0 0 0 0 0 0 0 0 0 0 0 0 0 0 0 0 0 0
0 0 0 0 0 0 0 0 0 0 0 0 0 0 0 0 0 0 0 0 0 0 0 0 0 0 0 0 0 0 0 0 0 0 0 0 0 0 0 0 0 0 0
0 0 0 0 0 0 0 0 0 0 0 0 0 0 0 0 0 0 0 0 0 0 0 0 0 0 0 0 0 0 0 0 0 0 0 0 -0 0 0 0 0 0 0
0 0 0 0 0 0 0 0 0 0 0 0 0 0 0 0 0 0 0 0 0 0 0 0 0 0 0 0 0 0 0 0 0 0 0 0 0 0 0 0 0 0 0
0 0 0 0 0 0 0 0 0 0 0 0 0 0 0 0 0 0 0 0 0 0 0 0 0 0 0 0 0 0 0 -0 -0 0 0 0 0 0 0 0 0 0 0
0 0 0 0 0 0 0 0 0 0 0 0 0 0 0 0 0 0 0 0 0 0 0 0 0 0 0 0 0 0 0 0 0 0 0 0 0 0 0 0 0 0 0
0 0 0 0 0 0 0 0 0 0 0 0 0 0 0 0 0 0 0 0 0 0 0 0 0 0 0 0 0 0 0 -0 0 0 0 0 0 0 0 0 0 0 0
0 0 0 0 0 0 0 0 0 0 0 0 0 0 0 0 0 0 0 0 0 0 0 0 0 0 0 0 0 0 0 0 0 0 0 0 0 -0 0 0 0 0 0
0 0 0 0 0 0 0 0 0 0 0 0 0 0 0 0 0 0 0 0 0 0 0 0 0 0 0 0 0 0 0 0 0 0 0 0 0 -0 0 0 -0 -0 0
0 0 0 0 0 0 0 0 0 0 0 0 0 0 0 0 0 0 0 0 0 0 0 0 0 0 0 0 0 0 0 0 0 0 0 0 0 0 0 0 0 0 0
0 0 0 0 0 0 0 0 0 0 0 0 0 0 0 0 0 0 0 0 0 0 0 0 0 0 0 0 0 0 0 0 0 0 0 0 0 0 -0 0 0 0 0
0 0 0 0 0 0 0 0 0 0 0 0 0 0 0 0 0 0 0 0 0 0 0 0 0 0 0 0 0 0 0 0 0 0 0 0 0 0 0 -0 0 0 0
Wind_Speed_500mb
12 13 18 22 26 30 34 34 31 29 26 27 27 28 31 28 30 33 34 33 34 34 33 35 31 24 17 22 30 26 21 23 23 25 32 37 33 25 22 19 15 5 13
9 15 25 29 30 37 39 33 32 28 26 25 27 25 28 29 30 30 32 34 33 34 33 33 33 31 29 19 21 26 24 25 28 26 31 38 34 36 30 27 24 24 17
11 16 20 32 41 44 38 32 28 23 22 23 22 23 23 28 30 32 33 32 31 33 33 36 34 33 31 32 25 18 22 25 22 34 29 17 25 32 40 32 27 28 19
13 18 21 36 41 37 32 29 29 29 24 20 19 23 23 25 29 31 31 32 30 31 32 32 34 35 35 29 30 20 23 24 26 26 23 21 25 24 31 45 35 34 27
16 20 28 35 35 32 26 25 24 24 25 25 23 23 27 28 29 30 31 28 27 32 34 35 33 34 35 34 32 30 25 25 33 36 31 27 35 29 32 48 46 39 37
16 20 29 30 29 27 24 24 23 23 23 24 25 26 26 29 31 31 28 29 28 31 32 33 32 34 35 36 35 33 32 31 31 35 31 35 43 34 44 42 50 45 42
15 17 20 27 23 21 19 21 22 21 23 27 29 30 31 33 34 33 33 34 33 33 35 37 36 33 33 35 37 37 38 37 37 39 32 32 37 42 42 51 42 44 50
13 16 17 26 29 22 20 20 18 22 25 28 29 31 32 33 34 36 37 36 35 37 39 36 36 37 37 36 36 37 41 46 42 39 32 34 39 39 39 39 41 41 40
14 15 16 17 21 28 25 24 24 24 24 24 25 28 32 35 37 42 44 44 43 40 37 40 39 40 43 43 42 45 46 45 43 39 31 31 28 34 40 43 37 36 41
13 14 16 17 18 17 16 25 23 24 25 26 29 31 35 35 39 41 44 48 48 44 40 40 39 42 44 45 42 41 42 41 28 31 31 28 32 41 43 40 41 39 41
12 14 15 17 18 19 17 23 25 26 28 28 28 32 28 26 29 38 39 47 45 44 44 39 41 41 41 34 35 38 39 27 31 32 32 31 36 39 42 42 43 44 41
11 12 14 15 17 19 16 20 20 20 21 22 27 31 30 30 31 35 35 36 38 39 38 39 40 39 33 34 33 34 29 34 36 34 34 36 40 41 43 44 45 46 47
9 11 13 15 17 18 18 20 18 19 22 22 28 32 33 30 30 31 34 35 37 38 37 40 38 34 37 35 35 34 36 37 35 35 34 40 44 46 46 46 47 46 49
9 12 13 15 15 17 18 18 18 19 23 24 26 29 31 29 31 32 32 35 35 37 38 36 37 38 37 35 35 34 35 35 35 40 40 42 46 49 50 50 49 50 50
7 10 11 13 16 17 17 19 18 18 20 22 22 26 31 30 30 31 31 32 31 32 34 37 34 39 38 37 35 36 35 37 37 38 43 44 48 50 51 52 53 54 53
7 8 8 10 16 18 18 21 20 18 20 19 21 26 29 29 29 30 28 29 30 30 29 35 32 34 39 36 37 36 38 39 39 39 42 47 45 49 52 54 55 56 56
5 6 8 11 14 17 17 19 16 17 17 17 20 25 29 29 29 27 27 28 32 35 38 39 37 39 42 39 37 37 40 41 41 42 43 46 44 47 51 52 53 56 56
4 6 6 11 11 14 15 16 16 16 17 18 21 24 29 28 29 28 28 30 34 40 39 40 40 43 44 40 40 39 45 45 40 41 39 40 46 51 56 53 52 56 59
5 5 6 8 11 15 16 14 14 14 15 16 19 23 30 28 30 28 27 29 37 33 36 35 34 40 44 42 45 48 45 44 33 33 35 41 48 53 61 67 64 60 62
8 6 6 8 10 15 14 14 12 12 14 16 20 25 28 28 29 28 27 29 37 36 37 37 37 37 39 40 51 43 46 41 45 29 42 44 43 53 65 54 55 55 54
9 6 6 6 9 12 11 12 10 12 12 14 20 24 27 29 30 29 29 30 31 37 40 32 31 39 42 38 45 50 36 34 18 38 35 40 51 63 60 50 48 47 49
9 9 8 6 10 11 11 11 10 11 12 16 19 21 25 25 27 26 30 29 31 33 34 42 40 39 41 37 48 50 33 52 33 37 38 40 49 69 52 45 37 36 40
11 10 8 8 8 8 11 10 12 11 14 14 18 19 23 24 26 28 29 30 31 32 33 41 37 35 43 37 36 40 24 21 61 25 38 42 51 64 46 37 30 27 27
14 17 13 12 8 9 9 6 8 9 12 14 15 20 21 22 22 25 27 28 27 28 31 34 35 36 35 40 38 29 37 43 45 37 44 44 50 61 42 29 31 30 29
21 18 15 14 11 10 8 8 6 9 10 12 15 20 20 20 21 21 26 26 27 28 28 32 32 34 39 37 41 43 42 44 43 44 50 68 54 58 26 34 40 30 18
23 22 20 15 13 13 10 10 9 10 12 12 15 16 18 18 19 20 26 25 24 28 29 30 31 32 34 34 35 42 39 45 49 41 50 55 54 61 41 27 36 33 21
Wind_Direction_500mb
10 13 357 1 357 353 349 351 354 353 350 345 350 348 353 354 358 360 5 357 356 355 357 358 357 349 346 355 1 338 310 313 298 286 268 260 265 270 259 241 240 259 282
21 5 1 330 343 341 342 350 352 355 354 354 352 355 357 359 352 1 357 357 357 352 355 354 354 356 352 329 337 347 345 309 316 303 272 260 273 270 269 258 246 241 263
15 2 351 326 330 332 341 1 360 357 350 3 346 352 0 359 355 353 355 352 353 348 356 353 351 350 349 344 331 332 332 341 309 278 285 311 255 287 264 268 257 247 259
11 1 340 328 329 334 340 355 5 8 10 5 1 352 358 344 346 350 349 357 354 351 349 345 342 344 346 340 346 319 327 323 306 298 281 292 279 260 282 257 254 247 242
3 0 321 327 328 334 356 357 1 3 4 5 7 1 358 349 354 352 357 352 350 346 348 341 342 334 334 334 339 333 322 313 310 295 277 270 283 272 286 257 250 255 248
6 359 335 342 341 343 346 356 3 0 357 359 355 353 352 351 353 351 348 346 346 342 338 334 336 335 331 328 330 327 324 306 275 279 292 280 268 279 250 259 242 247 256
353 4 351 352 352 352 351 356 9 3 350 345 346 346 348 347 347 347 343 340 340 339 335 333 333 326 321 321 323 318 311 308 306 291 290 293 289 269 279 269 272 248 243
13 12 9 356 358 3 358 357 353 347 345 345 345 346 346 346 345 344 343 341 340 334 334 334 327 324 321 319 316 315 306 308 308 302 298 287 283 287 279 280 279 278 261
15 15 11 10 8 0 357 359 353 349 349 349 350 349 347 343 345 344 342 340 341 339 338 331 331 326 326 322 316 313 310 310 309 310 298 292 293 283 278 273 282 281 259
14 14 10 9 4 5 356 354 353 355 355 354 354 355 352 358 340 340 335 334 335 334 336 333 333 330 328 327 324 320 318 317 328 298 305 296 290 291 287 283 281 279 279
7 9 4 4 0 1 360 346 360 354 359 0 358 348 356 342 335 340 336 337 337 335 336 336 333 331 333 339 326 323 333 327 313 306 300 297 294 296 298 295 289 281 279
1 3 359 360 3 3 360 353 349 354 349 350 348 345 346 342 337 340 337 340 337 337 337 334 335 336 333 327 324 326 320 314 311 307 302 297 296 297 296 295 290 284 277
5 356 355 359 4 360 0 359 349 349 344 347 344 345 349 344 342 341 340 338 339 338 337 336 336 334 329 326 323 319 315 315 310 306 299 297 298 298 297 293 290 285 276
354 355 353 357 5 359 360 351 349 348 352 344 347 348 352 347 344 343 342 341 341 339 334 334 333 332 332 326 318 320 317 313 309 305 302 299 298 299 296 294 289 284 278
351 352 349 357 358 358 358 350 352 349 346 352 351 348 353 348 346 344 343 345 342 337 334 336 338 336 332 329 331 322 320 314 310 307 304 302 302 300 297 293 289 283 280
345 336 350 352 345 358 356 351 355 348 353 353 351 350 351 350 347 345 345 343 345 347 336 336 340 333 335 332 328 330 321 317 313 308 305 302 301 300 299 295 289 282 277
316 340 335 348 352 353 353 349 354 344 359 353 352 353 349 352 350 351 345 344 336 346 352 359 351 339 332 334 331 326 320 314 309 306 304 306 307 300 297 292 288 284 277
310 310 329 341 346 344 345 352 353 350 359 357 355 354 351 354 354 352 347 341 334 341 343 349 347 341 341 334 327 326 318 312 311 310 306 306 298 306 307 297 289 284 278
288 288 298 327 340 345 348 354 349 355 357 358 358 354 357 356 355 354 346 339 333 337 344 340 337 343 338 335 338 325 320 321 331 316 312 309 301 306 299 291 288 281 276
273 279 318 322 341 342 355 354 351 351 356 358 355 355 359 356 354 353 346 344 335 347 339 336 335 334 333 331 331 337 323 336 324 313 309 314 311 300 313 299 299 289 280
277 282 284 305 325 350 350 346 351 348 350 346 352 354 354 358 357 356 349 344 342 340 336 335 330 329 331 340 321 325 326 323 344 314 328 314 317 316 313 303 296 295 281
237 260 282 309 330 333 347 338 341 337 334 354 344 349 353 356 355 355 353 350 347 344 340 341 343 337 327 334 325 329 328 334 309 341 326 325 317 325 316 306 297 283 273
236 243 252 270 300 321 332 347 344 332 350 331 339 343 349 351 354 354 354 350 349 347 343 339 345 338 329 331 327 325 320 318 322 317 332 324 327 333 319 311 305 289 285
224 231 243 254 275 293 312 337 323 324 329 325 335 337 346 347 349 352 353 349 344 342 342 340 339 338 335 330 333 330 314 316 321 311 323 338 341 329 325 337 334 308 287
217 227 232 249 268 275 292 305 324 305 308 320 328 334 338 340 339 346 348 348 349 346 339 337 335 336 333 332 330 332 332 325 325 317 321 332 338 340 324 11 3 351 351
221 226 235 239 253 264 278 289 303 312 313 320 323 331 327 332 332 332 341 341 341 342 342 339 333 330 331 327 328 329 334 326 322 324 320 325 329 338 340 19 27 13 7
Wind_Speed_850mb
12 13 18 22 26 30 34 34 31 29 26 27 27 28 31 28 30 33 34 33 34 34 33 35 31 24 17 22 30 26 21 23 23 25 32 37 33 25 22 19 15 5 13
9 15 25 29 30 37 39 33 32 28 26 25 27 25 28 29 30 30 32 34 33 34 33 33 33 31 29 19 21 26 24 25 28 26 31 38 34 36 30 27 24 24 17
11 16 20 32 41 44 38 32 28 23 22 23 22 23 23 28 30 32 33 32 31 33 33 36 34 33 31 32 25 18 22 25 22 34 29 17 25 32 40 32 27 28 19
13 18 21 36 41 37 32 29 29 29 24 20 19 23 23 25 29 31 31 32 30 31 32 32 34 35 35 29 30 20 23 24 26 26 23 21 25 24 31 45 35 34 27
16 20 28 35 35 32 26 25 24 24 25 25 23 23 27 28 29 30 31 28 27 32 34 35 33 34 35 34 32 30 25 25 33 36 31 27 35 29 32 48 46 39 37
16 20 29 30 29 27 24 24 23 23 23 24 25 26 26 29 31 31 28 29 28 31 32 33 32 34 35 36 35 33 32 31 31 35 31 35 43 34 44 42 50 45 42
15 17 20 27 23 21 19 21 22 21 23 27 29 30 31 33 34 33 33 34 33 33 35 37 36 33 33 35 37 37 38 37 37 39 32 32 37 42 42 51 42 44 50
13 16 17 26 29 22 20 20 18 22 25 28 29 31 32 33 34 36 37 36 35 37 39 36 36 37 37 36 36 37 41 46 42 39 32 34 39 39 39 39 41 41 40
14 15 16 17 21 28 25 24 24 24 24 24 25 28 32 35 37 42 44 44 43 40 37 40 39 40 43 43 42 45 46 45 43 39 31 31 28 34 40 43 37 36 41
13 14 16 17 18 17 16 25 23 24 25 26 29 31 35 35 39 41 44 48 48 44 40 40 39 42 44 45 42 41 42 41 28 31 31 28 32 41 43 40 41 39 41
12 14 15 17 18 19 17 23 25 26 28 28 28 32 28 26 29 38 39 47 45 44 44 39 41 41 41 34 35 38 39 27 31 32 32 31 36 39 42 42 43 44 41
11 12 14 15 17 19 16 20 20 20 21 22 27 31 30 30 31 35 35 36 38 39 38 39 40 39 33 34 33 34 29 34 36 34 34 36 40 41 43 44 45 46 47
9 11 13 15 17 18 18 20 18 19 22 22 28 32 33 30 30 31 34 35 37 38 37 40 38 34 37 35 35 34 36 37 35 35 34 40 44 46 46 46 47 46 49
9 12 13 15 15 17 18 18 18 19 23 24 26 29 31 29 31 32 32 35 35 37 38 36 37 38 37 35 35 34 35 35 35 40 40 42 46 49 50 50 49 50 50
7 10 11 13 16 17 17 19 18 18 20 22 22 26 31 30 30 31 31 32 31 32 34 37 34 39 38 37 35 36 35 37 37 38 43 44 48 50 51 52 53 54 53
7 8 8 10 16 18 18 21 20 18 20 19 21 26 29 29 29 30 28 29 30 30 29 35 32 34 39 36 37 36 38 39 39 39 42 47 45 49 52 54 55 56 56
5 6 8 11 14 17 17 19 16 17 17 17 20 25 29 29 29 27 27 28 32 35 38 39 37 39 42 39 37 37 40 41 41 42 43 46 44 47 51 52 53 56 56
4 6 6 11 11 14 15 16 16 16 17 18 21 24 29 28 29 28 28 30 34 40 39 40 40 43 44 40 40 39 45 45 40 41 39 40 46 51 56 53 52 56 59
5 5 6 8 11 15 16 14 14 14 15 16 19 23 30 28 30 28 27 29 37 33 36 35 34 40 44 42 45 48 45 44 33 33 35 41 48 53 61 67 64 60 62
8 6 6 8 10 15 14 14 12 12 14 16 20 25 28 28 29 28 27 29 37 36 37 37 37 37 39 40 51 43 46 41 45 29 42 44 43 53 65 54 55 55 54
9 6 6 6 9 12 11 12 10 12 12 14 20 24 27 29 30 29 29 30 31 37 40 32 31 39 42 38 45 50 36 34 18 38 35 40 51 63 60 50 48 47 49
9 9 8 6 10 11 11 11 10 11 12 16 19 21 25 25 27 26 30 29 31 33 34 42 40 39 41 37 48 50 33 52 33 37 38 40 49 69 52 45 37 36 40
11 10 8 8 8 8 11 10 12 11 14 14 18 19 23 24 26 28 29 30 31 32 33 41 37 35 43 37 36 40 24 21 61 25 38 42 51 64 46 37 30 27 27
14 17 13 12 8 9 9 6 8 9 12 14 15 20 21 22 22 25 27 28 27 28 31 34 35 36 35 40 38 29 37 43 45 37 44 44 50 61 42 29 31 30 29
21 18 15 14 11 10 8 8 6 9 10 12 15 20 20 20 21 21 26 26 27 28 28 32 32 34 39 37 41 43 42 44 43 44 50 68 54 58 26 34 40 30 18
23 22 20 15 13 13 10 10 9 10 12 12 15 16 18 18 19 20 26 25 24 28 29 30 31 32 34 34 35 42 39 45 49 41 50 55 54 61 41 27 36 33 21
Wind_Direction_850mb
10 13 357 1 357 353 349 351 354 353 350 345 350 348 353 354 358 360 5 357 356 355 357 358 357 349 346 355 1 338 310 313 298 286 268 260 265 270 259 241 240 259 282
21 5 1 330 343 341 342 350 352 355 354 354 352 355 357 359 352 1 357 357 357 352 355 354 354 356 352 329 337 347 345 309 316 303 272 260 273 270 269 258 246 241 263
15 2 351 326 330 332 341 1 360 357 350 3 346 352 0 359 355 353 355 352 353 348 356 353 351 350 349 344 331 332 332 341 309 278 285 311 255 287 264 268 257 247 259
11 1 340 328 329 334 340 355 5 8 10 5 1 352 358 344 346 350 349 357 354 351 349 345 342 344 346 340 346 319 327 323 306 298 281 292 279 260 282 257 254 247 242
3 0 321 327 328 334 356 357 1 3 4 5 7 1 358 349 354 352 357 352 350 346 348 341 342 334 334 334 339 333 322 313 310 295 277 270 283 272 286 257 250 255 248
6 359 335 342 341 343 346 356 3 0 357 359 355 353 352 351 353 351 348 346 346 342 338 334 336 335 331 328 330 327 324 306 275 279 292 280 268 279 250 259 242 247 256
353 4 351 352 352 352 351 356 9 3 350 345 346 346 348 347 347 347 343 340 340 339 335 333 333 326 321 321 323 318 311 308 306 291 290 293 289 269 279 269 272 248 243
13 12 9 356 358 3 358 357 353 347 345 345 345 346 346 346 345 344 343 341 340 334 334 334 327 324 321 319 316 315 306 308 308 302 298 287 283 287 279 280 279 278 261
15 15 11 10 8 0 357 359 353 349 349 349 350 349 347 343 345 344 342 340 341 339 338 331 331 326 326 322 316 313 310 310 309 310 298 292 293 283 278 273 282 281 259
14 14 10 9 4 5 356 354 353 355 355 354 354 355 352 358 340 340 335 334 335 334 336 333 333 330 328 327 324 320 318 317 328 298 305 296 290 291 287 283 281 279 279
7 9 4 4 0 1 360 346 360 354 359 0 358 348 356 342 335 340 336 337 337 335 336 336 333 331 333 339 326 323 333 327 313 306 300 297 294 296 298 295 289 281 279
1 3 359 360 3 3 360 353 349 354 349 350 348 345 346 342 337 340 337 340 337 337 337 334 335 336 333 327 324 326 320 314 311 307 302 297 296 297 296 295 290 284 277
5 356 355 359 4 360 0 359 349 349 344 347 344 345 349 344 342 341 340 338 339 338 337 336 336 334 329 326 323 319 315 315 310 306 299 297 298 298 297 293 290 285 276
354 355 353 357 5 359 360 351 349 348 352 344 347 348 352 347 344 343 342 341 341 339 334 334 333 332 332 326 318 320 317 313 309 305 302 299 298 299 296 294 289 284 278
351 352 349 357 358 358 358 350 352 349 346 352 351 348 353 348 346 344 343 345 342 337 334 336 338 336 332 329 331 322 320 314 310 307 304 302 302 300 297 293 289 283 280
345 336 350 352 345 358 356 351 355 348 353 353 351 350 351 350 347 345 345 343 345 347 336 336 340 333 335 332 328 330 321 317 313 308 305 302 301 300 299 295 289 282 277
316 340 335 348 352 353 353 349 354 344 359 353 352 353 349 352 350 351 345 344 336 346 352 359 351 339 332 334 331 326 320 314 309 306 304 306 307 300 297 292 288 284 277
310 310 329 341 346 344 345 352 353 350 359 357 355 354 351 354 354 352 347 341 334 341 343 349 347 341 341 334 327 326 318 312 311 310 306 306 298 306 307 297 289 284 278
288 288 298 327 340 345 348 354 349 355 357 358 358 354 357 356 355 354 346 339 333 337 344 340 337 343 338 335 338 325 320 321 331 316 312 309 301 306 299 291 288 281 276
273 279 318 322 341 342 355 354 351 351 356 358 355 355 359 356 354 353 346 344 335 347 339 336 335 334 333 331 331 337 323 336 324 313 309 314 311 300 313 299 299 289 280
277 282 284 305 325 350 350 346 351 348 350 346 352 354 354 358 357 356 349 344 342 340 336 335 330 329 331 340 321 325 326 323 344 314 328 314 317 316 313 303 296 295 281
237 260 282 309 330 333 347 338 341 337 334 354 344 349 353 356 355 355 353 350 347 344 340 341 343 337 327 334 325 329 328 334 309 341 326 325 317 325 316 306 297 283 273
236 243 252 270 300 321 332 347 344 332 350 331 339 343 349 351 354 354 354 350 349 347 343 339 345 338 329 331 327 325 320 318 322 317 332 324 327 333 319 311 305 289 285
224 231 243 254 275 293 312 337 323 324 329 325 335 337 346 347 349 352 353 349 344 342 342 340 339 338 335 330 333 330 314 316 321 311 323 338 341 329 325 337 334 308 287
217 227 232 249 268 275 292 305 324 305 308 320 328 334 338 340 339 346 348 348 349 346 339 337 335 336 333 332 330 332 332 325 325 317 321 332 338 340 324 11 3 351 351
221 226 235 239 253 264 278 289 303 312 313 320 323 331 327 332 332 332 341 341 341 342 342 339 333 330 331 327 328 329 334 326 322 324 320 325 329 338 340 19 27 13 7